Regional Weather Roundup
Issued by NWS

Home | Current Version | Previous Version | Text Only | Print | Product List | Glossary On
Versions: 1 2 3 4 5 6 7 8 9 10 11 12 13 14 15 16 17 18 19 20 21 22 23 24 25 26 27 28 29 30 31 32 33 34 35 36 37 38 39 40 41 42 43 44 45 46 47 48 49 50
000
ASUS43 KBIS 240110
RWRND

NORTH DAKOTA REGIONAL WEATHER ROUNDUP
NATIONAL WEATHER SERVICE BISMARCK ND
800 PM CDT SAT SEP 23 2017

NOTE: "FAIR" INDICATES FEW OR NO CLOUDS BELOW 12,000 FEET WITH NO
SIGNIFICANT WEATHER AND/OR OBSTRUCTIONS TO VISIBILITY.


NDZ001>003-009>011-017-240200-
NORTHWEST NORTH DAKOTA

CITY           SKY/WX    TMP DP  RH WIND       PRES   REMARKS
WILLISTON      LGT RAIN  47  43  86 E7        30.13R
MINOT          CLOUDY    51  44  77 NW8       30.10S
MINOT AFB      CLOUDY    51  43  72 N8        30.10R
$$

NDZ018>021-031>035-040>046-240200-
SOUTHWEST NORTH DAKOTA

CITY           SKY/WX    TMP DP  RH WIND       PRES   REMARKS
BISMARCK       LGT RAIN  53  47  79 NE10      30.05R
DICKINSON      RAIN      45  44  97 N12       30.06F FOG
GARRISON         N/A     48  45  89 N8        30.10R
HETTINGER ARPT LGT RAIN  45  42  89 N9        30.07S FOG
$$

NDZ004>008-012>016-024-026-027-054-240200-
NORTHEAST NORTH DAKOTA

CITY           SKY/WX    TMP DP  RH WIND       PRES   REMARKS
GRAND FORKS    CLOUDY    59  50  72 N12       30.05S
GRND FRKS AFB  CLOUDY    57  48  71 N9        30.06F
DEVILS LAKE    CLOUDY    52  45  77 NE13      30.10S
$$

NDZ022-023-025-028>030-036>039-047>053-240200-
SOUTHEAST NORTH DAKOTA

CITY           SKY/WX    TMP DP  RH WIND       PRES   REMARKS
FARGO          LGT RAIN  58  52  80 NE8       30.03R
JAMESTOWN      LGT RAIN  54  50  86 NE6       30.02F
$$




USA.gov is the U.S. government's official web portal to all federal, state and local government web resources and services.